Location: Wien
(48.2082°N, 16.3738°E)
Time: 12:12:50
(UTC+02:00)

Tiros 1 despin weight - Pass Details

Date: 21 September 2024
Orbit: 573 x 615 km, 48.2° (Epoch: 06 October)

Event Time Altitude Azimuth Distance (km) Brightness Sun altitude
Rises 05:00:18 0° 274° (W) 2,872 - -17.1°
Reaches altitude 10° 05:02:36 10° 274° (W) 1,972 - -16.7°
Exits shadow 05:04:46 28° 274° (W) 1,163 ? -16.4°
Maximum altitude 05:07:09 89° 193° (SSW) 622 ? -16.0°
Drops below altitude 10° 05:11:43 10° 97° (E) 1,979 ? -15.3°
Sets 05:14:02 0° 97° (E) 2,883 ? -14.9°
